Epoch 2003 Dec. 27.0 TT = JDT 2453000.5 T 2003 Dec. 11.57753 TT MPC q 1.0000683 (2000.0) P Q n 0.18210730 Peri. 9.06939 +0.20097548 -0.97481347 a 3.0826045 Node 69.38276 +0.89216083 +0.14138446 e 0.6755768 Incl. 5.92915 +0.40454655 +0.17247935 P 5.41 From 275 observations 1819 Dec. 14-2013 July 6, mean residual 0".77. Assumed non-gravitational parameters A1 = +0.10 +/- 0.00, A2 = -0.0054 +/- 0.0001 due to S. Nakano.
H = 20.5 G = 0.15